STARLINK-35060

Last updated on Mon Oct 20 2025 00:02:06 GMT+0000 (Coordinated Universal Time)

1 65693U 25212T 25292.25002315 -.01636656 00000+0 -44004-1 0 9996 2 65693 53.1594 281.6604 0001993 82.5078 206.4863 15.40772520 5666
UTC large
Height (km)
Speed (km/s)
/
Latitude / Longitude
Inclination (degrees)
Orbital Period (minutes)
Azimuth
Elevation
Range (km)
Doppler Factor

Next 0 passes for location: London (51.5072 / 0.1276)

Sorry there are no passes over London.